Regional Weather Roundup
Issued by NWS

Home | Current Version | Previous Version | Graphics & Text | Print | Product List | Glossary On
Versions: 1 2 3 4 5 6 7 8 9 10 11 12 13 14 15 16 17 18 19 20 21 22 23 24 25 26 27 28 29 30 31 32 33 34 35 36 37 38 39 40 41 42 43 44 45 46 47 48 49 50
000
ASUS45 KBOU 270907
RWRCO

WEATHER ROUNDUP FOR COLORADO
NATIONAL WEATHER SERVICE DENVER/BOULDER CO
200 AM MST THU NOV 27 2014

NOTE: "FAIR" INDICATES FEW OR NO CLOUDS BELOW 12000 FEET WITH NO
SIGNIFICANT WEATHER AND/OR OBSTRUCTIONS TO VISIBILITY.

COZ001>005-013-030-031-271000-
...NORTHWEST COLORADO...

CITY           SKY/WX    TMP DP  RH WIND       PRES   REMARKS
CRAIG          PTCLDY    25  21  85 SE3       30.43R
HAYDEN         PTCLDY    25  19  80 E9        30.43R WCI  15
MEEKER         PTCLDY    28  23  81 CALM      30.46R
MOUNT WERNER   NOT AVBL
STEAMBOAT SPGS PTCLDY    28  27  94 E3        30.44R
WALDEN         PTCLDY    34  19  55 SW13G18   30.38R WCI  25
$$

COZ006>008-011-271000-
...WEST CENTRAL VALLEYS...

CITY           SKY/WX    TMP DP  RH WIND       PRES   REMARKS
GRAND JUNCTION CLEAR     27  22  81 E5        30.46R WCI  22
MONTROSE       CLEAR     26  21  81 S8        30.50S WCI  18
EAGLE          PTCLDY    25  25 100 E5        30.50S WCI  19
RIFLE          PTCLDY    25  22  88 SE3       30.49S
DELTA          CLEAR     29  23  80 E5        30.50R WCI  24
NUCLA          CLEAR     30  23  74 E6        30.53R WCI  24
$$

COZ017>023-064>068-271000-
...SOUTHWEST COLORADO...

CITY           SKY/WX    TMP DP  RH WIND       PRES   REMARKS
DURANGO        PTCLDY    24  19  81 N3        30.47R
CORTEZ         CLEAR     25  20  81 NE9       30.47S WCI  15
PAGOSA SPRINGS PTCLDY    24  20  87 CALM      30.49S
TELLURIDE      CLEAR     27  21  79 SE7       30.55S WCI  19
WOLF CREEK PAS CLEAR     30  -4  22 MISG      30.59R
$$

COZ009-010-012-014-032>034-037-058>063-271000-
...CENTRAL COLORADO...

CITY           SKY/WX    TMP DP  RH WIND       PRES   REMARKS
ASPEN          PTCLDY    21  17  84 SW7       30.48F WCI  12
BUENA VISTA    CLEAR     27  18  69 CALM      30.43S
COPPER MTN     PTCLDY    27  14  59 W29G39    30.51S WCI  11
BERTHOUD PASS  NOT AVBL
COTTONWOOD PAS CLEAR     34  18  51 SE3       30.46R
GUNNISON       CLEAR     18  10  73 CALM      30.55R
KREMMLING      PTCLDY    27  21  80 SE5       30.45F WCI  21
LEADVILLE      PTCLDY    20  12  71 NE9       30.48S WCI   9
MONARCH PASS   CLOUDY    19  18  93 MISG      30.59S
SALIDA         CLEAR     42  22  44 SW15G26   30.49R
SUNLIGHT       PTCLDY    27  25  93 CALM      30.53F
WILKERSON PASS PTCLDY    27   9  46 W6        30.47F WCI  20
$$

COZ069>075-271000-
...SAN LUIS VALLEY/SANGRE DE CRISTO MOUNTAINS...

CITY           SKY/WX    TMP DP  RH WIND       PRES   REMARKS
ALAMOSA        MOCLDY    16  12  84 W7        30.49R WCI   6
LA VETA PASS   PTCLDY    30  18  59 S16G28    30.46R WCI  19
SAGUACHE       NOT AVBL
$$

COZ035-036-038>040-271000-
...NORTHERN COLORADO FRONT RANGE...

CITY           SKY/WX    TMP DP  RH WIND       PRES   REMARKS
DENVER INTL AP MOCLDY    33  24  69 CALM      30.25R
DMNS CITY PARK   N/A     31  25  78 S3        30.25S
AURORA         PTCLDY    36  24  62 S8        30.26S
FRONT RANGE AP MOCLDY    34  28  80 SW8       30.26R WCI  27
ERIE MUNI ARPT MOCLDY    23  21  93 S3        30.24F
BOULDER MUN AP MOCLDY    28  27  93 S5        30.23F WCI  23
CENTENNIAL     MOCLDY    35  24  64 CALM      30.26R
BROOMFIELD     MOCLDY    41  27  56 CALM      30.25S
FORT COLLINS   MOCLDY    23  19  86 NE6       30.26F WCI  16
LONGMONT       MOCLDY    24  22  91 CALM      30.27S
$$

COZ041-046-047-076>085-087-088-271000-
...PIKES PEAK/PALMER DIVIDE AND SOUTHERN FOOTHILLS...

CITY           SKY/WX    TMP DP  RH WIND       PRES   REMARKS
COLO. SPRINGS  PTCLDY    26  21  81 N8        30.31S WCI  18
A. F. ACADEMY  PTCLDY    22  19  85 N8        30.30F WCI  13
ELLICOTT       NOT AVBL
FALCON         NOT AVBL
FORT CARSON    PTCLDY    25  22  88 N10       30.30S WCI  15
LIMON          PTCLDY    21  17  84 E3        30.30S
MONUMENT HILL  PTCLDY    36  19  51 SW12      30.29S
TRINIDAD       PTCLDY    30  23  75 W7        30.31S WCI  23
$$

COZ042>045-048>051-090-091-271000-
...NORTHEAST COLORADO...

CITY           SKY/WX    TMP DP  RH WIND       PRES   REMARKS
GREELEY ARPT   MOCLDY    21  16  79 N5        30.28S WCI  15
AKRON          CLEAR     26  23  88 W14       30.25R WCI  14
BURLINGTON     CLEAR     25  19  78 SW16      30.30F WCI  12
WRAY           PTCLDY    24  21  90 S5        30.29F WCI  18
STERLING       CLEAR     18  16  93 W3        30.26S
HOLYOKE        PTCLDY    21  19  93 SE6       30.28S WCI  14
FORT MORGAN    CLEAR     24  22  93 W13       30.27R WCI  12
$$

COZ086-089-092>099-271000-
...SOUTHEAST COLORADO...

CITY           SKY/WX    TMP DP  RH WIND       PRES   REMARKS
PUEBLO         PTCLDY    22  18  85 CALM      30.32S
LA JUNTA       CLEAR     22  18  85 NW5       30.33S WCI  16
LAMAR          CLEAR     22  17  81 CALM      30.33S
SPRINGFIELD      N/A     30  21  69 S14       30.33S WCI  19
$$



USA.gov is the U.S. government's official web portal to all federal, state and local government web resources and services.